GW4615 Weather Reports


time (UTC)temp
F
wind
direction
speed
knots
gust
knots
rain 1hr
in
rain 24hr
in
rain mn
in
humidity
%
barometer
mb
20260504202446 76 155 5.2 9.6 0.00 0.00 0.00 36 1010.0
20260504201943 75 152 1.7 5.2 0.00 0.00 0.00 38 1010.1
20260504201440 76 182 1.7 6.1 0.00 0.00 0.00 37 1010.0
20260504200938 77 314 1.7 8.7 0.00 0.00 0.00 39 1010.1
20260504200435 77 137 2.6 6.1 0.00 0.00 0.00 36 1010.2
20260504195931 78 151 3.5 7.0 0.00 0.00 0.00 36 1010.2
20260504195427 76 259 1.7 5.2 0.00 0.00 0.00 34 1010.3
20260504194924 75 142 4.3 5.2 0.00 0.00 0.00 36 1010.4
20260504194420 76 88 5.2 8.7 0.00 0.00 0.00 34 1010.8
20260504193916 77 205 7.8 12.2 0.00 0.00 0.00 37 1010.7
20260504193414 76 162 4.3 8.7 0.00 0.00 0.00 38 1010.8
20260504192912 76 134 7.8 7.8 0.00 0.00 0.00 35 1010.7
20260504192409 75 183 3.5 9.6 0.00 0.00 0.00 36 1010.9
20260504191908 76 129 7.0 11.3 0.00 0.00 0.00 34 1010.9
20260504191405 76 6 0.9 7.8 0.00 0.00 0.00 42 1010.8
20260504190900 76 112 3.5 5.2 0.00 0.00 0.00 37 1011.2
20260504190356 76 157 6.1 8.7 0.00 0.00 0.00 36 1011.2
20260504185853 76 313 3.5 6.1 0.00 0.00 0.00 38 1011.3
20260504185350 75 132 1.7 6.1 0.00 0.00 0.00 39 1011.4
20260504184846 75 96 7.0 8.7 0.00 0.00 0.00 35 1011.2
20260504184342 75 42 1.7 6.1 0.00 0.00 0.00 38 1011.5
20260504183838 75 136 1.7 8.7 0.00 0.00 0.00 36 1011.6
20260504183336 74 162 2.6 7.0 0.00 0.00 0.00 40 1011.5
20260504182833 72 120 1.7 7.8 0.00 0.00 0.00 38 1011.8
20260504182331 73 151 3.5 7.0 0.00 0.00 0.00 39 1011.8
20260504181827 74 135 5.2 11.3 0.00 0.00 0.00 37 1011.6
20260504181325 73 168 0.9 6.1 0.00 0.00 0.00 37 1011.7
20260504180824 74 184 5.2 9.6 0.00 0.00 0.00 35 1011.7
20260504180322 75 155 3.5 3.5 0.00 0.00 0.00 35 1011.5
20260504175820 76 97 6.1 7.8 0.00 0.00 0.00 36 1011.9
20260504175316 74 95 4.3 7.0 0.00 0.00 0.00 35 1011.6
20260504174814 74 84 2.6 7.0 0.00 0.00 0.00 37 1011.7
20260504174311 76 154 5.2 7.8 0.00 0.00 0.00 35 1011.9
20260504173808 74 133 1.7 3.5 0.00 0.00 0.00 35 1012.0
20260504173305 74 190 0.9 6.1 0.00 0.00 0.00 35 1011.9
20260504172802 73 77 2.6 7.8 0.00 0.00 0.00 36 1012.3
20260504172259 74 188 2.6 3.5 0.00 0.00 0.00 37 1012.3
20260504171754 75 158 6.1 7.8 0.00 0.00 0.00 34 1012.3
20260504171252 75 42 0.9 8.7 0.00 0.00 0.00 34 1012.2
20260504170749 75 226 2.6 8.7 0.00 0.00 0.00 35 1012.2
20260504170246 74 223 4.3 6.1 0.00 0.00 0.00 36 1012.3
20260504160204 72 135 5.2 7.8 0.00 0.00 0.00 38 1013.4
20260504151132 69 147 3.5 6.1 0.00 0.00 0.00 39 1014.1
20260504150630 69 187 2.6 7.0 0.00 0.00 0.00 40 1014.2
20260504150126 69 152 6.1 7.8 0.00 0.00 0.00 38 1014.1
20260504141055 66 144 3.5 6.1 0.00 0.00 0.00 45 1014.3
20260504140551 66 142 4.3 7.0 0.00 0.00 0.00 41 1014.4
20260504130516 58 98 0.9 3.5 0.00 0.00 0.00 52 1015.4
20260504110403 45 156 0.9 0.9 0.00 0.00 0.00 72 1016.0
20260504100320 46 160 0.0 2.6 0.00 0.00 0.00 67 1015.7
20260504081714 46 219 0.0 0.9 0.00 0.00 0.00 66 1016.1
20260504081210 46 232 0.0 1.7 0.00 0.00 0.00 65 1016.4
20260504080707 46 260 0.9 2.6 0.00 0.00 0.00 66 1016.2
20260504080203 46 260 0.9 2.6 0.00 0.00 0.00 66 1016.2
20260504070131 45 127 0.0 0.9 0.00 0.00 0.00 68 1016.4
20260504050519 45 203 0.9 1.7 0.00 0.00 0.00 65 1017.0
20260504050017 45 218 0.9 0.9 0.00 0.00 0.00 67 1017.1
20260504045513 44 206 0.0 0.9 0.00 0.00 0.00 68 1017.0
20260504045009 44 208 0.0 0.0 0.00 0.00 0.00 69 1017.0
20260504044507 44 203 0.9 0.9 0.00 0.00 0.00 70 1017.1
20260504044004 44 235 0.9 0.9 0.00 0.00 0.00 70 1017.1
20260504043500 44 203 0.0 0.0 0.00 0.00 0.00 70 1017.1
20260504042958 44 191 0.0 0.9 0.00 0.00 0.00 69 1017.0
20260504042454 45 201 0.0 1.7 0.00 0.00 0.00 68 1017.0
20260504041951 45 190 0.0 0.0 0.00 0.00 0.00 69 1016.8
20260504041447 46 178 0.9 1.7 0.00 0.00 0.00 65 1017.0
20260504040943 46 229 0.0 1.7 0.00 0.00 0.00 62 1017.2
20260504040441 46 217 1.7 2.6 0.00 0.00 0.00 59 1017.2
20260504035937 46 221 0.9 2.6 0.00 0.00 0.00 59 1017.1
20260504035435 45 189 2.6 3.5 0.00 0.00 0.00 63 1017.0
20260504034931 44 206 0.9 2.6 0.00 0.00 0.00 66 1017.1
20260504034429 44 218 0.0 0.9 0.00 0.00 0.00 70 1017.1
20260504033925 44 201 0.0 0.0 0.00 0.00 0.00 68 1017.2
20260504033423 43 244 0.9 2.6 0.00 0.00 0.00 68 1017.1
20260504032920 43 202 0.0 0.0 0.00 0.00 0.00 71 1016.9
20260504032417 42 151 0.0 0.0 0.00 0.00 0.00 71 1017.3
20260504031914 42 153 0.0 0.0 0.00 0.00 0.00 71 1017.1
20260504031411 42 178 0.0 0.9 0.00 0.00 0.00 70 1017.1
20260504030907 42 238 0.0 0.0 0.00 0.00 0.00 70 1017.0
20260504030404 42 244 0.0 0.0 0.00 0.00 0.00 70 1017.1
20260504025900 42 238 0.0 0.0 0.00 0.00 0.00 70 1017.1
20260504025357 42 197 0.0 0.0 0.00 0.00 0.00 70 1017.2
20260504024854 42 212 0.0 0.0 0.00 0.00 0.00 70 1016.9
20260504024350 42 215 0.9 0.9 0.00 0.00 0.00 71 1017.1
20260504023847 42 196 0.9 1.7 0.00 0.00 0.00 71 1017.1
20260504023344 42 213 0.0 0.0 0.00 0.00 0.00 71 1017.1
20260504022839 42 231 0.0 0.0 0.00 0.00 0.00 67 1017.0
20260504022337 42 262 0.0 0.9 0.00 0.00 0.00 67 1016.9
20260504021833 42 227 0.9 0.9 0.00 0.00 0.00 68 1017.1
20260504021331 43 207 0.0 0.0 0.00 0.00 0.00 66 1017.1
20260504020828 43 243 0.9 0.9 0.00 0.00 0.00 65 1017.2
20260504020324 44 214 0.0 0.0 0.00 0.00 0.00 63 1017.0
20260504015820 44 210 0.0 1.7 0.00 0.00 0.00 62 1016.8
20260504015317 44 261 0.0 0.0 0.00 0.00 0.00 63 1016.6
20260504014814 44 223 0.0 0.0 0.00 0.00 0.00 63 1016.8
20260504014309 44 229 0.0 0.0 0.00 0.00 0.00 65 1016.5
20260504013807 45 207 0.0 0.0 0.00 0.00 0.00 63 1016.3
20260504013305 46 200 0.0 0.0 0.00 0.00 0.00 61 1016.3
20260504012800 46 263 0.9 1.7 0.00 0.00 0.00 57 1016.3
20260504012259 47 259 0.9 1.7 0.00 0.00 0.00 54 1015.9
20260504011755 47 201 0.9 2.6 0.00 0.00 0.00 53 1016.1
20260504011252 47 225 1.7 2.6 0.00 0.00 0.00 52 1016.1
20260504010748 47 249 0.9 1.7 0.00 0.00 0.00 55 1016.0
20260504010243 48 221 1.7 2.6 0.00 0.00 0.00 52 1015.8
20260504005741 49 286 1.7 3.5 0.00 0.00 0.00 50 1016.0
20260504005238 49 227 2.6 3.5 0.00 0.00 0.00 50 1015.9
20260504004736 50 260 0.0 1.7 0.00 0.00 0.00 46 1015.7
20260504004232 51 266 3.5 7.0 0.00 0.00 0.00 45 1015.8
20260504003729 50 232 1.7 5.2 0.00 0.00 0.00 44 1015.6
20260504003226 50 269 0.9 1.7 0.00 0.00 0.00 47 1015.7
20260504002723 50 264 0.9 1.7 0.00 0.00 0.00 46 1015.6
20260504002219 51 260 1.7 6.1 0.00 0.00 0.00 45 1015.7
20260504001718 52 253 3.5 6.1 0.00 0.00 0.00 43 1015.6
20260504001214 52 273 5.2 7.0 0.00 0.00 0.00 42 1015.7
20260504000711 53 284 0.9 0.9 0.00 0.00 0.00 45 1015.6
20260504000208 53 242 3.5 5.2 0.00 0.00 0.00 42 1015.7
20260503235706 53 268 2.6 3.5 0.00 0.00 0.00 43 1015.6
20260503235203 53 287 3.5 5.2 0.00 0.00 0.00 40 1015.6
20260503234700 53 260 1.7 2.6 0.00 0.00 0.00 45 1015.7
20260503234159 53 255 1.7 2.6 0.00 0.00 0.00 48 1015.4
20260503233655 53 253 1.7 1.7 0.00 0.00 0.00 50 1015.6
20260503233151 53 246 1.7 1.7 0.00 0.00 0.00 45 1015.6
20260503232648 53 278 1.7 1.7 0.00 0.00 0.00 46 1015.5
20260503232145 54 249 1.7 1.7 0.00 0.00 0.00 44 1015.5
20260503231643 54 247 1.7 2.6 0.00 0.00 0.00 39 1015.5
20260503231139 54 266 1.7 2.6 0.00 0.00 0.00 38 1015.6
20260503230636 55 244 1.7 1.7 0.00 0.00 0.00 43 1015.5
20260503230133 55 235 0.9 1.7 0.00 0.00 0.00 34 1015.4
20260503225631 54 236 1.7 1.7 0.00 0.00 0.00 36 1015.5
20260503225130 55 266 0.9 1.7 0.00 0.00 0.00 38 1015.3
20260503224628 55 243 1.7 2.6 0.00 0.00 0.00 33 1015.4
20260503224126 55 207 0.9 1.7 0.00 0.00 0.00 36 1015.3
20260503223624 55 246 1.7 1.7 0.00 0.00 0.00 35 1015.4
20260503223119 55 261 1.7 1.7 0.00 0.00 0.00 37 1015.3
20260503222617 55 301 1.7 1.7 0.00 0.00 0.00 36 1015.5
20260503222115 56 282 1.7 1.7 0.00 0.00 0.00 36 1015.4
20260503221613 58 130 0.0 0.9 0.00 0.00 0.00 34 1015.6
20260503221110 58 282 1.7 2.6 0.00 0.00 0.00 33 1015.5
20260503220607 58 60 4.3 5.2 0.00 0.00 0.00 28 1015.4
20260503220103 60 125 0.9 3.5 0.00 0.00 0.00 28 1015.4
20260503215600 63 167 3.5 5.2 0.00 0.00 0.00 25 1015.5
20260503215057 63 83 0.0 1.7 0.00 0.00 0.00 24 1015.4
20260503214555 66 232 3.5 5.2 0.00 0.00 0.00 25 1015.7
20260503214051 66 273 0.9 1.7 0.00 0.00 0.00 24 1015.5
20260503213550 63 239 0.0 1.7 0.00 0.00 0.00 25 1015.5
20260503213046 63 190 1.7 2.6 0.00 0.00 0.00 30 1015.5
20260503212544 62 220 3.5 5.2 0.00 0.00 0.00 28 1015.6
20260503212042 62 106 3.5 3.5 0.00 0.00 0.00 28 1015.6
20260503211538 63 278 4.3 6.1 0.00 0.00 0.00 24 1015.7
20260503211033 61 194 2.6 7.0 0.00 0.00 0.00 29 1015.5
20260503210531 61 22 2.6 6.1 0.00 0.00 0.00 28 1015.5
20260503210026 65 192 0.9 6.1 0.00 0.00 0.00 27 1015.6
20260503205523 62 94 1.7 1.7 0.00 0.00 0.00 30 1015.8
20260503205020 62 93 2.6 3.5 0.00 0.00 0.00 27 1015.9
20260503204517 61 149 3.5 6.1 0.00 0.00 0.00 31 1015.6
20260503204014 60 107 3.5 6.1 0.00 0.00 0.00 28 1015.9
20260503203511 61 161 1.7 8.7 0.00 0.00 0.00 30 1015.8
20260503203008 61 352 1.7 6.1 0.00 0.00 0.00 31 1016.0